OneWeb SL0677

operational
NORAD ID: 56713 Int'l Des: 2023-068 Owner: ONEWEBN Country: UK Constellation: oneweb
LEOCIRCULARPOLARONEWEB_TYPE

About OneWeb SL0677

Description loading...

Live Position

Loading 3D Globe...

Upcoming Passes

Altitude History

Altitude vs Time

uPlot chart will show altitude changes over time

Two-Line Element Set

1 56713U 23068D 26062.12721701 .00000130 00000-0 28740-3 0 9996
2 56713 87.9181 295.6120 0001599 77.2095 282.9217 13.20772089135804
Epoch: Mar 3, 2026 • Age: 18 hours

Current Status

Altitude 1184.2 km
Velocity 7.26 km/s
Sub-Earth Point 25.94°N, 130.95°W
Launch Date May 20, 2023
Age 2.7 years
Type internet

Technical Details

Classification Payload
Mass 148.00 kg
Dry Mass 140.00 kg
Total Mass 148.00 kg
Length 1.30 m
Diameter 1.00 m
Span 5.00 m
Shape Trapezoid+2 pan
Manufacturer ONEWUS
Bus Type ARROW
Phase Status In Orbit
Owner/State ONEWEBN/UK

Large Constellations

Loading constellations...